Regional Weather Roundup
Issued by NWS Little Rock, AR

Home | Current Version | Previous Version | Graphics & Text | Print | Product List | Glossary On
Versions: 1 2 3 4 5 6 7 8 9 10 11 12 13 14 15 16 17 18 19 20 21 22 23 24 25 26 27 28 29 30 31 32 33 34 35 36 37 38 39 40 41 42 43 44 45 46 47 48 49 50
000
ASUS44 KLZK 310505
RWRLZK

WEATHER ROUNDUP FOR ARKANSAS
NATIONAL WEATHER SERVICE LITTLE ROCK AR
1200 AM CDT FRI JUL 31 2015

NOTE: "FAIR" INDICATES FEW OR NO CLOUDS BELOW 12,000 FEET WITH NO
SIGNIFICANT WEATHER AND/OR OBSTRUCTIONS TO VISIBILITY.

ARZ001-003-010-029-310600-
NORTHWEST ARKANSAS

CITY           SKY/WX    TMP DP  RH WIND       PRES   REMARKS
FAYETTEVILLE   CLEAR     68  68 100 CALM      30.17S
FORT SMITH     CLEAR     79  69  71 E7        30.11S
HARRISON       CLEAR     68  65  90 CALM      30.18S
BENTONVILLE    MOCLDY    75  61  60 E5        30.18S
ROGERS         CLEAR     73  67  81 SE5       30.18S
SILOAM SPGS    CLEAR     72  63  73 E3        30.15F
HIGHFILL       CLOUDY    74  67  78 E3        30.17S
$$

ARZ004-005-016-310600-
NORTH CENTRAL ARKANSAS

CITY           SKY/WX    TMP DP  RH WIND       PRES   REMARKS
BATESVILLE     CLEAR     70  66  88 NW5       30.12S
FLIPPIN        PTCLDY    70  64  83 CALM      30.13S
MTN HOME       PTCLDY    70  66  87 CALM      30.15S
$$

ARZ040-041-310600-
WEST CENTRAL ARKANSAS

CITY           SKY/WX    TMP DP  RH WIND       PRES   REMARKS
MENA           CLEAR     73  72  94 CALM      30.14S
MOUNT IDA      FOG       73  72  96 CALM      30.11R VSB 1/2
$$

ARZ009-017-025-026-028-310600-
NORTHEAST ARKANSAS

CITY           SKY/WX    TMP DP  RH WIND       PRES   REMARKS
JONESBORO      PTCLDY    72  64  76 N5        30.10S
NEWPORT        PTCLDY    74  67  78 N5        30.11F
WALNUT RIDGE   MOCLDY    73  66  78 NW5       30.11S
BLYTHEVILLE    CLEAR     70  68  93 NE6       30.09F
$$

ARZ022-023-033-042-044-310600-
CENTRAL ARKANSAS

CITY           SKY/WX    TMP DP  RH WIND       PRES   REMARKS
LITTLE ROCK    MOCLDY    76  63  64 NE3       30.11R
N LITTLE ROCK  MOCLDY    76  64  67 N6        30.11R
SEARCY         PTCLDY    74  63  68 N5        30.12S
HOT SPRINGS    CLEAR     75  63  66 E6        30.11S
RUSSELLVILLE   PTCLDY    73  67  81 CALM      30.12R
$$

ARZ036-310600-
EAST ARKANSAS

CITY           SKY/WX    TMP DP  RH WIND       PRES   REMARKS
WEST MEMPHIS   PTCLDY    73  66  78 N5        30.07F
$$

ARZ050-053-066-070-073-310600-
SOUTHWEST ARKANSAS

CITY           SKY/WX    TMP DP  RH WIND       PRES   REMARKS
ARKADELPHIA    FAIR      76  69  79 NE6       30.09S
CAMDEN         PTCLDY    70  64  83 CALM      30.07S
TEXARKANA      MOCLDY    78  74  87 NE3       30.07S
EL DORADO      PTCLDY    75  64  68 N6        30.07R
DE QUEEN       CLEAR     73  73 100 CALM      30.08R FOG
$$

ARZ056-057-069-310600-
SOUTHEAST ARKANSAS

CITY           SKY/WX    TMP DP  RH WIND       PRES   REMARKS
PINE BLUFF     MOCLDY    74  67  78 N6        30.09S
STUTTGART      PTCLDY    73  64  73 MISG      30.09R
MONTICELLO     CLEAR     76  67  73 NE5       30.06S

$$




USA.gov is the U.S. government's official web portal to all federal, state and local government web resources and services.